Retour au catalogue

DMSP 5D-2 F13 DEB

ActifSSO
NORAD 40516·DEBRIS·🇺🇸 United States

Lancé Mar 24, 1995 depuis Vandenberg Space Force Base

Loading…

Prochains Passages (prochaines 24 heures)

TLE

FraisSource: Space-Track

Époque: Sep 14, 2026, 01:41 UTC

1 40516U 95015DC  26257.07074070  .00002826  00000-0  94844-3 0  9993
2 40516  98.7801 295.8028 0022080 217.4711 142.4937 14.37915282595247

Suivez DMSP 5D-2 F13 DEB en temps réel avec AllMySat

Download on the App Store